Regional Weather Roundup
Issued by NWS

Home | Current Version | Previous Version | Text Only | Print | Product List | Glossary Off
Versions: 1 2 3 4 5 6 7 8 9 10 11 12 13 14 15 16 17 18 19 20 21 22 23 24 25 26 27 28 29 30 31 32 33 34 35 36 37 38 39 40 41 42 43 44 45 46 47 48 49 50

000
ASUS43 KBIS 260602
RWRND

NORTH DAKOTA REGIONAL WEATHER ROUNDUP
NATIONAL WEATHER SERVICE BISMARCK ND
100 AM CDT TUE JUL 26 2016

NOTE: "FAIR" INDICATES FEW OR NO CLOUDS BELOW 12,000 FEET WITH NO
SIGNIFICANT WEATHER AND/OR OBSTRUCTIONS TO VISIBILITY.


NDZ001>003-009>011-017-260700-
NORTHWEST NORTH DAKOTA

CITY           SKY/WX    TMP DP  RH WIND       PRES   REMARKS
WILLISTON      CLEAR     72  59  63 NE3       30.00S
6HR MIN TEMP:  69; 6HR MAX TEMP:  90;

MINOT          CLEAR     68  63  84 NW3       29.98S
MINOT AFB      CLEAR     62  60  93 SE2       29.97S
$$

NDZ018>021-031>035-040>046-260700-
SOUTHWEST NORTH DAKOTA

CITY           SKY/WX    TMP DP  RH WIND       PRES   REMARKS
BISMARCK       CLOUDY    74  70  87 NE12      29.95S
6HR MIN TEMP:  74; 6HR MAX TEMP:  94;

DICKINSON      PTCLDY    67  62  84 NE6       30.00R
GARRISON         N/A     69  66  90 NE5       29.98F
6HR MIN TEMP:  68; 6HR MAX TEMP:  87;

HETTINGER ARPT PTCLDY    75  61  61 N13       30.00R
$$

NDZ004>008-012>016-024-026-027-054-260700-
NORTHEAST NORTH DAKOTA

CITY           SKY/WX    TMP DP  RH WIND       PRES   REMARKS
GRAND FORKS    CLEAR     72  65  78 E9        29.92R
GRND FRKS AFB  CLEAR     71  66  83 NE5       29.94R
DEVILS LAKE    CLEAR     69  66  90 NE6       29.97S
$$

NDZ022-023-025-028>030-036>039-047>053-260700-
SOUTHEAST NORTH DAKOTA

CITY           SKY/WX    TMP DP  RH WIND       PRES   REMARKS
FARGO          PTCLDY    74  66  76 S8        29.92S
6HR MIN TEMP:  74; 6HR MAX TEMP:  89;

JAMESTOWN      MOCLDY    70  68  93 CALM      29.92S
$$





USA.gov is the U.S. government's official web portal to all federal, state and local government web resources and services.